{"data":{"norad_id":66422,"epoch":"2026-09-20T09:01:04.200384Z","epoch_age_seconds":104174,"freshness":"FRESH","line1":"1 66422U 25259A   26263.37574306  .00009454  00000+0  35258-3 0  9994","line2":"2 66422  43.0026 255.0762 0001739 278.5363  81.5291 15.27583588 49267","mean_motion":15.27583588,"eccentricity":0.0001739,"inclination_deg":43.0026,"raan_deg":255.0762,"arg_perigee_deg":278.5363,"mean_anomaly_deg":81.5291,"bstar":0.00035258,"rev_number":4926,"period_min":94.266527299192,"perigee_km":481.84519390414,"apogee_km":484.23151069167,"semimajor_km":6861.1753522979,"source":"CELESTRAK","updated_at":"2026-09-21T09:00:35.905714Z"}}